www.pogodaiklimat.ru
ПОГОДА в Кингсфорде
Время
и дата
15:18 23.10
15:54 23.10
16:54 23.10
17:54 23.10
18:07 23.10
18:44 23.10
18:54 23.10
19:31 23.10
19:54 23.10
20:54 23.10
21:54 23.10
22:54 23.10
23:54 23.10
00:54 24.10
01:54 24.10
02:54 24.10
03:54 24.10
04:54 24.10
05:54 24.10
06:49 24.10
06:54 24.10
07:05 24.10
07:54 24.10
08:19 24.10
08:27 24.10
08:54 24.10
09:54 24.10
10:54 24.10
11:54 24.10
12:54 24.10
13:54 24.10
14:54 24.10
15:54 24.10
16:54 24.10
17:54 24.10
18:54 24.10
19:54 24.10
20:54 24.10
21:54 24.10
22:54 24.10
23:54 24.10
00:54 25.10
01:54 25.10
02:54 25.10
03:54 25.10
04:54 25.10
05:54 25.10
06:54 25.10
Ветер
(напр.,м/с)
Видим. Явления Облачность Т
(С)
Тd
(С)
f
(%)
Тe
(С)
Тes
(С)
Комфортность P
(гПа)
Po
(гПа)
Тmin
(С)
Tmax
(С)
R
(мм)
R24
(мм)
S
(см)
СЗ 2 16 км 8/8 480 м +1.7 -1.1 82 -4 -4 975.4
СЗ 3 16 км 10/10 540 м +1.1 -1.1 85 -6 -6 1019.7 975.4
СЗ 2 16 км 8/8 570 м +0.6 -1.7 85 -5 -5 1020.3 976.1
СЗ 2 16 км 8/8 510 м +0.6 -2.2 81 -5 -5 1021.1 976.7 +2.2
СЗ 2 16 км 5/5 450 м 0.0 -2.8 81 -6 -4 977.1
СЗ 3
{4}
16 км 8/8 570 м 0.0 -3.3 78 -7 -7 977.7
СЗ 2 16 км 8/8 510 м 0.0 -2.8 81 -5 -5 1022.4 978.0
СЗ 2 16 км 8/8 570 м -0.6 -3.3 82 -7 -6 978.4
СЗ 2 16 км 10/10 930 м 0.0 -3.3 78 -5 -5 1023.2 978.7
СЗ 2 16 км 10/10 1080 м 0.0 -3.3 78 -5 -5 1023.8 979.3
СЗ 2 16 км 10/10 930 м 0.0 -2.8 81 -5 -5 1023.8 979.3
СЗ 1 16 км 8/8 960 м 0.0 -3.3 78 -5 -4 1023.7 979.3
З 1 16 км 10/10 1170 м 0.0 -3.9 75 -3 -3 1024.0 979.7 -0.6 +0.6
З 1 16 км 10/10 1260 м 0.0 -3.9 75 -3 -3 1024.1 979.7
нст 1 16 км 10/10 1410 м 0.0 -3.3 78 -3 -3 1024.3 979.7
З 1 16 км 10/10 1470 м -0.6 -3.3 82 -4 -4 1024.3 979.7
З 1 16 км 10/10 1500 м -0.6 -3.3 82 -4 -4 1024.3 979.7
штиль 0 16 км 10/10 1500 м -0.6 -3.3 82 -2 -2 1024.6 980.0
штиль 0 16 км 10/10 960 м -0.6 -3.3 82 -2 -2 1024.7 980.0 -0.6
З 1 16 км 10/10 540 м -1.0 -3.0 86 -5 -5 980.6
З 1 16 км 10/10 540 м -0.6 -3.3 82 -5 -5 1025.3 980.6
З 1 16 км 10/10 570 м -0.6 -3.3 82 -4 -4 980.6
З 1 16 км 10/10 480 м -0.6 -3.9 78 -5 -5 1025.6 980.9
СЗ 2 16 км 10/10 390 м -0.6 -3.9 78 -6 -6 980.9
З 2 16 км 10/10 390 м -0.6 -5.0 72 -7 -7 981.3
З 2 16 км 10/10 540 м -0.6 -5.0 72 -7 -7 1026.1 981.6
СЗ 3 16 км 10/10 1440 м -0.6 -6.7 63 -7 -7 1026.2 981.6
З 3
{4}
16 км 10/10 840 м 0.0 -6.7 61 -6 -6 1025.8 981.3
З 2 16 км 10/10 930 м 0.0 -7.2 58 -6 -6 1025.3 980.6 -1.1 +0.6
З 2 16 км 10/10 1200 м 0.0 -8.3 54 -5 -5 1024.7 980.0
СЗ 2 16 км 10/10 1200 м 0.0 -8.9 51 -5 -5 1024.7 980.0
З 2 16 км 10/10 1290 м 0.0 -8.9 51 -5 -5 1024.6 980.0
З 2 16 км 8/8 1350 м -0.6 -8.3 56 -6 -5 1024.8 980.0
СЗ 2 16 км 10/10 1410 м -1.1 -7.8 60 -6 -6 1025.1 980.3
З 1 16 км 10/10 1500 м -1.1 -7.2 63 -6 -6 1025.7 980.9 -1.1 +0.6
СЗ 1 16 км 5/5 1440 м -1.7 -6.7 69 -6 -6 1025.8 980.9
З 1 16 км 8/8 1290 м -2.2 -6.7 71 -6 -6 1026.0 981.3
З 1 16 км 5/5 1350 м -2.8 -6.7 74 -7 -7 1026.3 981.6
СЗ 1 16 км ясно -3.3 -7.2 74 -7 -7 1026.2 981.3
СЗ 1 16 км ясно -3.3 -6.7 77 -7 -7 1026.5 981.6
З 1 16 км ясно -3.3 -6.7 77 -8 -8 1026.6 981.6 -4.4 -1.1
СЗ 1 16 км ясно -3.9 -6.7 81 -8 -8 1026.7 981.9
З 1 16 км ясно -3.3 -6.7 77 -7 -7 1026.5 981.6
С 1 16 км ясно -3.3 -6.1 81 -7 -7 1026.4 981.6
СЗ 1 16 км 2/0 3600 м
[Ac]
-3.3 -6.1 81 -7 -7 1026.5 981.6
СЗ 1 16 км 10/0 3300 м
[Ac]
-2.8 -5.6 81 -8 -8 1026.8 981.9
СЗ 1 16 км 10/0 3000 м
[Ac]
-2.8 -5.6 81 -7 -7 1026.8 981.9 -3.9 -2.8
СЗ 1 16 км 10/5 1440 м
[Ac]
-2.2 -5.6 77 -6 -6 1026.8 981.9
Местоположение метеостанции Ford Airport: широта 45.8142 долгота -88.1089 высота над уровнем моря 360 м.
В архиве по умолчанию представлена погода в Кингсфорде за последние 1-2 суток. Обновление информации о фактической погоде в базе происходит ежечасно! Архивные данные за месяц целиком и за предыдущие месяцы Вы можете получить, выбрав интересующий диапазон дат из раскрывающегося списка и нажав кнопку "Ввод!".
Внимание! Архив погоды МЕТАР в базе сайта по станциям, не включенным в климатический монитор, хранится не более 60 дней. Нет смысла пытаться выбрать более раннюю дату.
*Определитесь, кто Вы:
Внимание! Время в таблицах - местное (без учета летнего времени). Для получения всемирного времени необходимо вычесть поправку, которая равна -6 ч.
Смотрите также архив погоды в соседних городах и на ближайших метеорологических станциях:
Партнеры нашего сайта:      
Пояснения к столбцам:
  • Ветер - указаны скорость ветра в м/с - средняя за 10 мин, порывы в срок и между сроками (в фигурных скобках) и направление, откуда дует ветер: С - северный,
  • СВ - северо-восточный, В - восточный, ЮВ - юго-восточный, Ю - южный, ЮЗ - юго-западный, З - западный, СЗ - северо-западный.
  • Видимость - горизонтальная дальность видимости в метрах или километрах. При видимости от 1 до 10 км при отсутствии осадков обычно наблюдается дымка, при ухудшении видимости до 1 км и менее - туман. В сухую погоду видимость может ухудшаться дымом, пылью или мглою.
  • Явления - указаны атмосферные явления, наблюдавшиеся в срок или в последний час перед сроком; фигурными скобками обозначены явления, наблюдавшиеся между сроками (за 1-3 часа до срока); квадратными скобками обозначены град или гололедные отложения с указанием их диаметра в мм.
  • Облачность - указаны через наклонную черту общая и нижняя облачность в баллах и высота нижней границы облаков в метрах; квадратными скобками обозначены формы облаков: Ci - перистые, Cs - перисто-слоистые, Cc - перисто-кучевые, Ac - высококучевые, As - высокослоистые, Sc - слоисто-кучевые, Ns - слоисто-дождевые, Cu - кучевые, Cb - кучево-дождевые. Подробнее классификацию облаков см. в Атласе облаков (PDF).
  • T - Температура воздуха - температура, измеренная на высоте 2 м над землей.
  • Td - Температура точки росы - температура, при понижении до которой содержащийся в воздухе водяной пар достигнет насыщения.
  • f - Относительная влажность воздуха - влажноcть воздуха, измеренная на высоте 2 м над землей.
  • Te - Эффективная температура - температура, которую ощущает одетый по сезону человек в тени. Характеристика душности погоды. При расчете учитывается влияние влажности воздуха и скорости ветра на теплоощущения человека.
  • Tes - Эффективная температура на солнце - температура, которую ощущает человек, с поправкой на солнечный нагрев. Характеристика знойности погоды. Зависит от высоты солнца над горизонтом, облачности и скорости ветра. Ночью, в пасмурную погоду, а также при ветре 12 м/с и более поправка равна нулю.
  • P - Атмосферное давление - приведенное к уровню моря атмосферное давление.
  • Po - Атмосферное давление - измеренное на уровне метеостанции атмосферное давление.
  • Tmin - Минимальная температура - минимум температуры воздуха на высоте 2 м над землей.
  • Tmax - Максимальная температура - максимум температуры воздуха на высоте 2 м над землей.
  • R - Количество осадков - Количество выпавших осадков за период времени, мм. При наведении курсора мыши на число - период времени, за который выпало указанное количество осадков.
  • R24 - Количество осадков - Количество выпавших осадков за 24 часа, мм.
  • S - Снежный покров - Высота снежного покрова, см. При наведении курсора мыши на число - состояние снежного покрова и степень покрытия местности в баллах.